Minneapolis Crystal, MN

11:42 AM CST on February 22, 2018 (GMT -0600)
Crystal

Weather History for KMIC - November, 2012

Change the Weather History Date:

Wednesday, November 7, 2012

  Actual Average Record
Temperature  
Mean Temperature 41 °F -  
Max Temperature 45 °F 44 °F 63 °F (2002)
Min Temperature 37 °F 28 °F -1 °F (1991)
Degree Days  
Heating Degree Days 24    
Moisture  
Dew Point 32 °F    
Average Humidity 76    
Maximum Humidity 87    
Minimum Humidity 56    
Precipitation  
Precipitation 0.00 in - - ()
Sea Level Pressure  
Sea Level Pressure 30.07 in    
Wind  
Wind Speed 5 mph (West)    
Max Wind Speed 8 mph    
Max Gust Speed -    
Visibility 10 miles    
Events      
Averages and records for this station are not official NWS values.
T = Trace of Precipitation, MM = Missing Value Source: NWS Daily Summary

Daily Weather History Graph

Daily Weather History Graph

Search for Another Location

Airport or City:

Trip Planner

Search our weather history database for the weather conditions in past years. The results will help you decide how hot, cold, wet, or windy it might be!

Date:

Astronomy

Nov. 07, 2012 Rise Set
Actual Time 7:00 AM CST 4:52 PM CST
Civil Twilight 6:29 AM CST 5:23 PM CST
Nautical Twilight 5:54 AM CST 5:58 PM CST
Astronomical Twilight 5:20 AM CST 6:33 PM CST
Moon No Moon Rise 1:18 PM CST (11/7)
Length of Visible Light 10h 54m
Length of Day
9h 51m
Last Quarter, 43% of the Moon is Illuminated
Nov 7
Last Quarter
Nov 13
New
Nov 20
First Quarter
Nov 28
Full
Dec 6
Last Quarter

Hourly Weather History & Observations

Time (CST) Temp. Windchill Dew Point Humidity Pressure Visibility Wind Dir Wind Speed Gust Speed Precip Events Conditions
12:53 AM 37.9 °F 33.5 °F 33.1 °F 83% 30.01 in 10.0 mi NNW 5.8 mph - N/A   Overcast
1:41 AM 37.4 °F 32.8 °F 33.8 °F 87% 29.99 in 10.0 mi NNW 5.8 mph - N/A   Overcast
1:53 AM 37.9 °F 34.4 °F 33.1 °F 83% 30.02 in 10.0 mi NNW 4.6 mph - N/A   Overcast
2:53 AM 37.9 °F 32.1 °F 33.1 °F 83% 30.04 in 10.0 mi NNW 8.1 mph - N/A   Overcast
3:06 AM 37.4 °F 32.8 °F 33.8 °F 87% 30.02 in 10.0 mi NW 5.8 mph - N/A   Overcast
3:25 AM 37.4 °F 32.1 °F 33.8 °F 87% 30.03 in 10.0 mi NW 6.9 mph - N/A   Overcast
3:53 AM 37.9 °F 33.5 °F 33.1 °F 83% 30.05 in 10.0 mi NNW 5.8 mph - N/A   Overcast
4:53 AM 37.9 °F 35.5 °F 33.1 °F 83% 30.07 in 10.0 mi NW 3.5 mph - N/A   Overcast
5:41 AM 37.4 °F 33.8 °F 33.8 °F 87% 30.05 in 10.0 mi WNW 4.6 mph - N/A   Overcast
5:53 AM 37.9 °F 33.5 °F 33.1 °F 83% 30.08 in 10.0 mi NW 5.8 mph - N/A   Overcast
6:53 AM 37.9 °F 34.4 °F 33.1 °F 83% 30.09 in 10.0 mi NW 4.6 mph - N/A   Overcast
7:39 AM 37.4 °F 34.9 °F 33.8 °F 87% 30.08 in 10.0 mi NW 3.5 mph - N/A   Overcast
7:53 AM 39.0 °F 36.8 °F 33.1 °F 79% 30.11 in 10.0 mi NW 3.5 mph - N/A   Overcast
8:08 AM 39.2 °F - 33.8 °F 81% 30.08 in 10.0 mi Calm Calm - N/A   Overcast
8:53 AM 39.0 °F 35.7 °F 33.1 °F 79% 30.12 in 10.0 mi WNW 4.6 mph - N/A   Overcast
9:53 AM 39.9 °F - 34.0 °F 79% 30.12 in 10.0 mi Calm Calm - N/A   Overcast
10:20 AM 41.0 °F - 33.8 °F 76% 30.10 in 10.0 mi Calm Calm - N/A   Overcast
10:53 AM 42.1 °F - 34.0 °F 73% 30.12 in 10.0 mi Calm Calm - N/A   Overcast
11:02 AM 42.8 °F 40.1 °F 33.8 °F 70% 30.10 in 10.0 mi West 4.6 mph - N/A   Overcast
11:53 AM 43.0 °F 41.3 °F 33.1 °F 68% 30.11 in 10.0 mi WSW 3.5 mph - N/A   Overcast
12:53 PM 45.0 °F - 30.9 °F 58% 30.09 in 10.0 mi Calm Calm - N/A   Overcast
1:53 PM 45.0 °F 42.6 °F 30.0 °F 56% 30.08 in 10.0 mi West 4.6 mph - N/A   Overcast
2:00 PM 44.6 °F 42.2 °F 30.2 °F 57% 30.06 in 10.0 mi SW 4.6 mph - N/A   Overcast
2:53 PM 45.0 °F 43.5 °F 30.9 °F 58% 30.08 in 10.0 mi Variable 3.5 mph - N/A   Overcast
3:53 PM 45.0 °F 42.6 °F 30.0 °F 56% 30.07 in 10.0 mi South 4.6 mph - N/A   Overcast
5:53 PM 44.1 °F 41.5 °F 30.9 °F 60% 30.07 in 10.0 mi South 4.6 mph - N/A   Overcast
6:53 PM 41.0 °F 39.0 °F 30.9 °F 67% 30.08 in 10.0 mi SE 3.5 mph - N/A   Partly Cloudy
7:53 PM 39.0 °F 36.8 °F 30.9 °F 73% 30.07 in 10.0 mi South 3.5 mph - N/A   Clear
8:53 PM 37.0 °F 32.4 °F 32.0 °F 82% 30.07 in 10.0 mi SSE 5.8 mph - N/A   Clear
9:53 PM 37.0 °F 31.6 °F 30.9 °F 79% 30.07 in 10.0 mi SSE 6.9 mph - N/A   Clear
10:53 PM 37.9 °F 33.5 °F 30.9 °F 76% 30.07 in 10.0 mi South 5.8 mph - N/A   Clear
11:53 PM 37.9 °F 32.7 °F 30.9 °F 76% 30.06 in 10.0 mi South 6.9 mph - N/A   Clear